Flag for Sweden Weather past 2 weeks in Stockholm, Sweden

Now
52 °F

Overcast.


Feels Like: 52 °F
Forecast: 53 / 58 °F
Wind: No wind

Location: Stockholm Bromma Airport

Current Time: Aug 31, 2015 at 5:39:54 AM

Latest Report: Aug 31, 2015 at 5:20 AM


Visibility: N/A

Pressure: 30.07 "Hg

Humidity: 94%

Dew point: 50 °F

Location of StockholmLocation

Historic Weather in Stockholm — Graph

°F

Stockholm temperature yesterday

Maximum temperature yesterday: 70 °F (at 3:20 PM)
Minimum temperature yesterday: 52 °F (at 3:20 AM)
Average temperature yesterday: 61 °F

Past Weeks' High & Low Weather Summary

 TemperatureHumidityPressure
High75 °F (Aug 22, 4:50 PM)100% (Aug 17, 1:50 AM)30.45 "Hg (Aug 17, 1:50 AM)
Low46 °F (Aug 20, 3:50 AM)33% (Aug 22, 4:20 PM)29.62 "Hg (Aug 27, 7:20 PM)
Average63 °F70%30.12 "Hg
* Reported Aug 16 4:20 AM — Aug 31 4:20 AM, Stockholm, Weather by CustomWeather, © 2015

Note: Actual official high and low records may vary slightly from our data, if they occured in-between our weather recording intervals... More about our weather records

Advertising

Stockholm weather history for previous 24 hours

 ConditionsComfort  
Time TempWeatherWind HumidityBarometerVisibility
4:20 AM
Mon, Aug 31
50 °FPassing clouds.No wind100%30.07 "HgN/A
3:50 AM52 °FPassing clouds.No wind94%30.07 "HgN/A
3:20 AM52 °FCool.No wind94%30.07 "HgN/A
2:50 AM52 °FCool.No wind94%30.07 "HgN/A
2:20 AM52 °FCool.No wind94%30.07 "HgN/A
1:50 AM52 °FCool.No wind94%30.07 "HgN/A
1:20 AM54 °FCool.No wind88%30.07 "HgN/A
12:50 AM52 °FCool.No wind94%30.07 "HgN/A
12:20 AM54 °FCool.3 mph88%30.07 "HgN/A
11:20 PM
Sun, Aug 30
55 °FCool.5 mph82%30.07 "HgN/A
10:50 PM55 °FCool.6 mph82%30.07 "HgN/A
10:20 PM55 °FCool.6 mph82%30.07 "HgN/A
9:20 PM59 °FClear.5 mph72%30.07 "Hg10 mi
8:50 PM59 °FSunny.3 mph77%30.07 "Hg10 mi
8:20 PM61 °FSunny.3 mph68%30.04 "Hg10 mi
7:50 PM63 °FSunny.2 mph64%30.04 "Hg10 mi
7:20 PM66 °FSunny.7 mph56%30.04 "Hg10 mi
6:50 PM68 °FSunny.9 mph49%30.04 "Hg10 mi
6:20 PM68 °FSunny.9 mph53%30.04 "Hg10 mi
5:50 PM68 °FSunny.9 mph49%30.04 "Hg10 mi
5:20 PM70 °FPassing clouds.10 mph46%30.04 "HgN/A
4:50 PM70 °FPassing clouds.10 mph46%30.04 "HgN/A
4:20 PM68 °FPassing clouds.10 mph49%30.04 "HgN/A
3:50 PM70 °FPassing clouds.12 mph46%30.04 "HgN/A
3:20 PM70 °FSunny.9 mph46%30.04 "Hg10 mi
2:50 PM68 °FPassing clouds.7 mph53%30.04 "HgN/A
2:20 PM64 °FSunny.7 mph64%30.04 "Hg10 mi
1:50 PM64 °FLight rain. Broken clouds.13 mph60%30.07 "HgN/A
1:20 PM68 °FScattered clouds.13 mph49%30.04 "HgN/A
12:50 PM68 °FScattered clouds.10 mph53%30.04 "HgN/A
12:20 PM68 °FPassing clouds.12 mph53%30.07 "HgN/A
11:50 AM66 °FPassing clouds.10 mph56%30.07 "HgN/A
11:20 AM66 °FPassing clouds.12 mph56%30.07 "HgN/A
10:50 AM64 °FScattered clouds.10 mph64%30.07 "HgN/A
10:20 AM64 °FPassing clouds.8 mph64%30.07 "HgN/A
9:50 AM63 °FPassing clouds.12 mph68%30.07 "HgN/A
9:20 AM61 °FPassing clouds.10 mph72%30.07 "HgN/A
8:50 AM59 °FPartly sunny.7 mph77%30.07 "HgN/A
8:20 AM59 °FPartly sunny.6 mph77%30.07 "HgN/A
7:50 AM57 °FPartly sunny.5 mph82%30.07 "HgN/A
7:20 AM55 °FPartly sunny.5 mph88%30.07 "HgN/A
6:50 AM55 °FOvercast.3 mph82%30.07 "HgN/A
6:20 AM54 °FPartly cloudy.2 mph88%30.07 "HgN/A
5:50 AM54 °FOvercast.3 mph88%30.07 "HgN/A
5:20 AM54 °FPassing clouds.3 mph82%30.07 "HgN/A
Weather by CustomWeather, © 2015

See weather overviewHow to use our weather pages